Weather History for KCAV - February, 2013

Change the Weather History Date:

Thursday, February 21, 2013

  Actual Average Record
Temperature  
Mean Temperature 18 °F -  
Max Temperature 24 °F 34 °F 61 °F (1981)
Min Temperature 12 °F 16 °F -14 °F (1963)
Degree Days  
Heating Degree Days 47    
Moisture  
Dew Point 11 °F    
Average Humidity 73    
Maximum Humidity 86    
Minimum Humidity 59    
Precipitation  
Precipitation 0.05 in - - ()
Sea Level Pressure  
Sea Level Pressure 30.14 in    
Wind  
Wind Speed 14 mph (East)    
Max Wind Speed 23 mph    
Max Gust Speed 30 mph    
Visibility 8 miles    
Events Snow    
Averages and records for this station are not official NWS values.
T = Trace of Precipitation, MM = Missing Value Source: NWS Daily Summary

Daily Weather History Graph

Daily Weather History Graph

Search for Another Location

Airport or City:

Trip Planner

Search our weather history database for the weather conditions in past years. The results will help you decide how hot, cold, wet, or windy it might be!

Date:

Astronomy

Feb. 21, 2013 Rise Set
Actual Time 7:02 AM CST 5:54 PM CST
Civil Twilight 6:34 AM CST 6:23 PM CST
Nautical Twilight 6:01 AM CST 6:56 PM CST
Astronomical Twilight 5:28 AM CST 7:29 PM CST
Moon 2:06 PM CST (2/21) 4:11 AM CST (2/21)
Length of Visible Light 11h 49m
Length of Day
10h 51m
Waxing Gibbous, 84% of the Moon is Illuminated
Feb 21
Waxing Gibbous
Feb 25
Full
Mar 4
Last Quarter
Mar 11
New
Mar 19
First Quarter

Hourly Weather History & Observations

Time (CST) Temp. Windchill Dew Point Humidity Pressure Visibility Wind Dir Wind Speed Gust Speed Precip Events Conditions
12:15 AM 15.8 °F 4.2 °F 6.8 °F 68% 30.32 in 10.0 mi ESE 9.2 mph - N/A   Overcast
12:35 AM 14.0 °F 2.0 °F 8.6 °F 79% 30.31 in 10.0 mi East 9.2 mph - N/A   Overcast
12:55 AM 14.0 °F 1.2 °F 8.6 °F 79% 30.31 in 10.0 mi East 10.4 mph - N/A   Overcast
1:15 AM 14.0 °F 2.0 °F 6.8 °F 73% 30.32 in 10.0 mi East 9.2 mph - N/A   Overcast
1:35 AM 14.0 °F 2.9 °F 6.8 °F 73% 30.34 in 10.0 mi ESE 8.1 mph - N/A   Overcast
1:55 AM 14.0 °F 2.9 °F 6.8 °F 73% 30.33 in 10.0 mi East 8.1 mph - N/A   Overcast
2:15 AM 14.0 °F 2.0 °F 8.6 °F 79% 30.32 in 10.0 mi East 9.2 mph - N/A   Overcast
2:35 AM 14.0 °F 0.5 °F 8.6 °F 79% 30.31 in 10.0 mi East 11.5 mph - N/A   Overcast
2:55 AM 14.0 °F 1.2 °F 8.6 °F 79% 30.30 in - East 10.4 mph - N/A   Overcast
3:15 AM 14.0 °F 1.2 °F 6.8 °F 73% 30.30 in 10.0 mi East 10.4 mph - N/A   Mostly Cloudy
3:35 AM 12.2 °F -0.2 °F 6.8 °F 79% 30.28 in 10.0 mi East 9.2 mph - N/A   Partly Cloudy
3:55 AM 12.2 °F -2.5 °F 6.8 °F 79% 30.26 in 10.0 mi East 12.7 mph - N/A   Clear
4:15 AM 12.2 °F -3.7 °F 6.8 °F 79% 30.21 in 10.0 mi East 15.0 mph - N/A   Clear
4:35 AM 12.2 °F -3.1 °F 6.8 °F 79% 30.22 in 10.0 mi East 13.8 mph - N/A   Clear
4:55 AM 14.0 °F 0.5 °F 6.8 °F 73% 30.28 in 10.0 mi ESE 11.5 mph - N/A   Clear
5:15 AM 12.2 °F -0.2 °F 6.8 °F 79% 30.30 in 10.0 mi ESE 9.2 mph 15.0 mph N/A   Clear
5:55 AM 12.2 °F -1.0 °F 6.8 °F 79% 30.28 in 10.0 mi East 10.4 mph - N/A   Clear
6:15 AM 12.2 °F -1.0 °F 6.8 °F 79% 30.27 in 10.0 mi ENE 10.4 mph - N/A   Partly Cloudy
6:35 AM 12.2 °F -2.5 °F 6.8 °F 79% 30.25 in 10.0 mi ENE 12.7 mph - N/A   Clear
6:55 AM 12.2 °F -3.7 °F 6.8 °F 79% 30.25 in 10.0 mi East 15.0 mph - N/A   Clear
7:15 AM 14.0 °F -1.4 °F 6.8 °F 73% 30.24 in 10.0 mi East 15.0 mph - N/A   Clear
7:35 AM 14.0 °F -1.4 °F 6.8 °F 73% 30.25 in 10.0 mi East 15.0 mph - N/A   Clear
7:55 AM 14.0 °F -0.2 °F 6.8 °F 73% 30.28 in 10.0 mi East 12.7 mph - N/A   Clear
8:15 AM 15.8 °F 0.3 °F 6.8 °F 68% 30.28 in 10.0 mi East 16.1 mph - N/A   Clear
8:35 AM 15.8 °F 0.3 °F 6.8 °F 68% 30.25 in 10.0 mi East 16.1 mph - N/A   Clear
8:55 AM 15.8 °F -0.6 °F 6.8 °F 68% 30.24 in 10.0 mi East 18.4 mph - N/A   Clear
9:15 AM 15.8 °F 0.3 °F 8.6 °F 73% 30.22 in 10.0 mi East 16.1 mph - N/A   Clear
9:35 AM 17.6 °F 3.7 °F 8.6 °F 68% 30.25 in 10.0 mi East 13.8 mph - N/A   Clear
9:55 AM 17.6 °F 3.7 °F 8.6 °F 68% 30.27 in 10.0 mi East 13.8 mph 23.0 mph N/A   Clear
10:15 AM 19.4 °F 5.0 °F 8.6 °F 63% 30.28 in 10.0 mi East 16.1 mph - N/A   Clear
10:35 AM 19.4 °F 5.5 °F 8.6 °F 63% 30.25 in 10.0 mi East 15.0 mph - N/A   Partly Cloudy
10:55 AM 19.4 °F 5.0 °F 8.6 °F 63% 30.23 in 10.0 mi East 16.1 mph 21.9 mph N/A   Clear
11:15 AM 21.2 °F 6.0 °F 10.4 °F 63% 30.22 in 10.0 mi East 19.6 mph - N/A   Partly Cloudy
11:35 AM 23.0 °F 9.6 °F 10.4 °F 59% 30.21 in 10.0 mi East 16.1 mph 26.5 mph N/A   Partly Cloudy
11:55 AM 23.0 °F 8.0 °F 10.4 °F 59% 30.19 in 10.0 mi East 20.7 mph 26.5 mph N/A   Partly Cloudy
12:15 PM 23.0 °F 9.2 °F 10.4 °F 59% 30.18 in 10.0 mi East 17.3 mph 25.3 mph N/A   Partly Cloudy
12:35 PM 24.8 °F 10.3 °F 12.2 °F 59% 30.16 in 10.0 mi East 20.7 mph - N/A   Partly Cloudy
12:55 PM 24.8 °F 11.1 °F 12.2 °F 59% 30.14 in 10.0 mi East 18.4 mph 25.3 mph N/A   Clear
1:15 PM 24.8 °F 10.7 °F 12.2 °F 59% 30.12 in 10.0 mi East 19.6 mph 26.5 mph N/A   Clear
1:35 PM 24.8 °F 10.7 °F 12.2 °F 59% 30.11 in 10.0 mi East 19.6 mph 26.5 mph N/A   Clear
1:55 PM 24.8 °F 10.7 °F 14.0 °F 64% 30.10 in 10.0 mi East 19.6 mph 26.5 mph N/A   Clear
2:15 PM 24.8 °F 9.6 °F 12.2 °F 59% 30.08 in 10.0 mi East 23.0 mph 28.8 mph N/A   Clear
2:35 PM 24.8 °F 10.0 °F 12.2 °F 59% 30.09 in 10.0 mi East 21.9 mph - N/A   Clear
2:55 PM 24.8 °F 9.6 °F 14.0 °F 64% 30.08 in 10.0 mi East 23.0 mph - N/A   Clear
3:15 PM 24.8 °F 9.6 °F 14.0 °F 64% 30.07 in 10.0 mi East 23.0 mph 28.8 mph N/A   Partly Cloudy
3:35 PM 24.8 °F 9.6 °F 14.0 °F 64% 30.07 in 10.0 mi East 23.0 mph 29.9 mph N/A   Mostly Cloudy
3:55 PM 24.8 °F 10.7 °F 14.0 °F 64% 30.08 in 10.0 mi East 19.6 mph 25.3 mph N/A   Overcast
4:15 PM 24.8 °F 10.0 °F 14.0 °F 64% 30.06 in 10.0 mi East 21.9 mph - N/A   Overcast
4:35 PM 23.0 °F 8.0 °F 14.0 °F 68% 30.05 in 10.0 mi ENE 20.7 mph - N/A   Overcast
4:55 PM 23.0 °F 8.3 °F 14.0 °F 68% 30.05 in 10.0 mi ENE 19.6 mph - N/A   Overcast
5:15 PM 23.0 °F 7.2 °F 14.0 °F 68% 30.05 in 10.0 mi ENE 23.0 mph - N/A   Overcast
5:35 PM 23.0 °F 7.6 °F 14.0 °F 68% 30.04 in 10.0 mi ENE 21.9 mph 27.6 mph N/A   Overcast
5:55 PM 23.0 °F 7.6 °F 14.0 °F 68% 30.04 in 10.0 mi ENE 21.9 mph 28.8 mph N/A   Overcast
6:15 PM 21.2 °F 5.6 °F 14.0 °F 74% 30.02 in 2.5 mi ENE 20.7 mph 29.9 mph N/A Snow Light Snow
6:35 PM 21.2 °F 5.6 °F 15.8 °F 80% 30.01 in 1.5 mi ENE 20.7 mph 27.6 mph N/A Snow Light Snow
6:55 PM 19.4 °F - 15.8 °F 86% 30.01 in 2.5 mi North - - N/A Snow Light Snow
7:15 PM 19.4 °F 2.5 °F 15.8 °F 86% 29.99 in 1.5 mi ENE 23.0 mph - N/A Snow Light Snow
7:35 PM 19.4 °F 3.2 °F 15.8 °F 86% 29.98 in 2.0 mi ENE 20.7 mph 27.6 mph N/A Snow Light Snow
7:55 PM 19.4 °F 2.5 °F 15.8 °F 86% 29.97 in 2.0 mi ENE 23.0 mph - 0.01 in Snow Light Snow
8:15 PM 19.4 °F 2.8 °F 15.8 °F 86% 29.96 in 1.5 mi NE 21.9 mph 28.8 mph N/A Snow Light Snow
8:35 PM 19.4 °F 2.5 °F 15.8 °F 86% 29.96 in 1.5 mi ENE 23.0 mph 28.8 mph N/A Snow Light Snow
8:55 PM 19.4 °F 3.2 °F 15.8 °F 86% 29.96 in 2.0 mi NE 20.7 mph 27.6 mph 0.01 in Snow Light Snow
9:15 PM 19.4 °F 3.2 °F 15.8 °F 86% 29.96 in 2.0 mi NE 20.7 mph 26.5 mph N/A Snow Light Snow
9:35 PM 19.4 °F 3.6 °F 15.8 °F 86% 29.95 in 1.5 mi NE 19.6 mph 26.5 mph N/A Snow Light Snow
9:55 PM 19.4 °F 5.0 °F 15.8 °F 86% 29.95 in 2.0 mi NE 16.1 mph 23.0 mph 0.02 in Snow Light Snow
10:15 PM 19.4 °F 3.6 °F 15.8 °F 86% 29.95 in 1.2 mi NE 19.6 mph - N/A Snow Light Snow
10:35 PM 19.4 °F 3.2 °F 15.8 °F 86% 29.93 in 0.8 mi NE 20.7 mph - N/A Snow Light Snow
10:55 PM 19.4 °F 3.2 °F 15.8 °F 86% 29.91 in 1.2 mi NE 20.7 mph - 0.01 in Snow Light Snow
11:15 PM 19.4 °F 3.6 °F 15.8 °F 86% 29.91 in 1.2 mi NE 19.6 mph 26.5 mph N/A Snow Light Snow
11:35 PM 19.4 °F 3.2 °F 15.8 °F 86% 29.90 in 1.8 mi ENE 20.7 mph 26.5 mph N/A Snow Light Snow
11:55 PM 19.4 °F 3.2 °F 15.8 °F 86% 29.89 in 1.8 mi ENE 20.7 mph - N/A Snow Light Snow